Location: Unspecified
(35.7250°N, 0.0000°E)
Time: 22:14:52
(UTC+00:00)

Vanguard 2 - Pass Details

Date: 25 June 2019
Orbit: 554 x 2938 km, 32.9° (Epoch: 13 October)

Event Time Altitude Azimuth Distance (km) Brightness Sun altitude
Rises 12:57:56 0° 275° (W) 4,231 11.5 72.8°
Reaches altitude 10° 13:00:42 10° 266° (W) 3,549 11.3 72.4°
Maximum altitude 13:09:05 35° 205° (SSW) 2,846 11.4 71.1°
Drops below altitude 10° 13:21:33 10° 147° (SSE) 5,278 11.9 68.9°
Sets 13:26:49 0° 140° (SE) 6,544 12.2 68.0°
